Location: Dillon
(41.1766°N, 107.0923°W)
Time: 05:45:31
(UTC+00:00)

SO-50 - Pass Details

Date: 05 July 2022
Orbit: 584 x 698 km, 64.6° (Epoch: 18 August)

Event Time Altitude Azimuth Distance (km) Brightness Sun altitude
Exits shadow 08:25:18 - 281° (W) 2,769 ? -23.9°
Reaches altitude 10° 08:28:49 10° 313° (NW) 2,110 ? -23.7°
Maximum altitude 08:30:01 11° 328° (NNW) 2,063 ? -23.6°
Drops below altitude 10° 08:31:15 10° 343° (NNW) 2,127 ? -23.5°
Sets 08:35:40 0° 20° (NNE) 3,070 ? -23.2°
